METAR AND TAF INFORMATION
METAR FOR EDVE
ADDS - METARS form results

(1227 UTC 22 March 2019)
Data provider http://aviationweather.gov/metar/data/
 
METAR text: EDVE 221220Z 16005KT 070V220 CAVOK 17/10 Q1031
Conditions at: EDVE (BRAUNSCHWEIG , DE) observed 1220 UTC 22 March 2019
Temperature: 17.0°C (63°F)
Dewpoint: 10.0°C (50°F) [RH = 63%]
Pressure (altimeter): 30.44 inches Hg (1031.0 mb)
Winds: from the SSE (160 degrees) at 6 MPH (5 knots; 2.6 m/s)
Visibility: 6 or more miles (10+ km)
Ceiling: ceiling and visibility are OK
Clouds: unknown
Weather: no significant weather observed at this time

METAR text: EDVE 221150Z VRB05KT CAVOK 16/09 Q1031
Conditions at: EDVE (BRAUNSCHWEIG , DE) observed 1150 UTC 22 March 2019
Temperature: 16.0°C (61°F)
Dewpoint: 9.0°C (48°F) [RH = 63%]
Pressure (altimeter): 30.44 inches Hg (1031.0 mb)
Winds: variable direction winds at 6 MPH (5 knots; 2.6 m/s)
Visibility: 6 or more miles (10+ km)
Ceiling: ceiling and visibility are OK
Clouds: unknown
Weather: no significant weather observed at this time

Forecast for: EDVE (BRAUNSCHWEIG , DE)
Text: TAF EDVE 221100Z 2212/2221 15007KT CAVOK
Forecast period: 1200 to 2100 UTC 22 March 2019
Forecast type: FROM: standard forecast or significant change
Winds: from the SSE (150 degrees) at 8 MPH (7 knots; 3.6 m/s)
Visibility: 6 or more miles 10+ km)
Ceiling: unknown
Clouds: missing
Weather: NSW  (no significant weather)

 AIRPORT MAP

 RUNWAY INFORMATION
Runway 08 Runway length 7546 ft Runway width 148 ft
Runway elevation 273 ft Runway displaced threshold 0 ft Runway heading 85
Runway 26 Runway length 7546 ft Runway width 148 ft
Runway elevation 291 ft Runway displaced threshold 591 ft Runway heading 265
Runway 08R Runway length 2953 ft Runway width 98 ft
Runway elevation 0 ft Runway displaced threshold 0 ft Runway heading 85
Runway 26L Runway length 2953 ft Runway width 98 ft
Runway elevation 0 ft Runway displaced threshold 0 ft Runway heading 265

 AIRPORT FREQUENCIES
Type ACC Name BREMEN RAD Frequency 131.325 MHZ
Type AFIS Name BREMEN INF Frequency 119.825 MHZ
Type INFO Name INFO Frequency 120.05 MHZ
Type TWR Name TWR Frequency 120.05 MHZ

 AIRPORT NEAR NAVIGATION AIDS
Type NDB Name Braunschweig Frequency 427 KHZ



Powered by Virtual Airlines Manager [v2.6.2]